Le nostre stazioni meteo in Italia

Pubblicità
Il mio iltempo24.it
Cervia, Italia (16148): Temperatura & dewpoint: 24.05.2020 22:00:00 - 30.05.2020 22:00:00 (CEST)Cervia, Italia (16148): velocità del vento: 24.05.2020 22:00:00 - 30.05.2020 22:00:00 (CEST)Cervia, Italia (16148): direzione del vento: 24.05.2020 22:00:00 - 30.05.2020 22:00:00 (CEST)Cervia, Italia (16148): reduced air pressure: 24.05.2020 22:00:00 - 30.05.2020 22:00:00 (CEST)Cervia, Italia (16148): visibility: 24.05.2020 22:00:00 - 30.05.2020 22:00:00 (CEST)Cervia, Italia (16148): ore di luce: 24.05.2020 22:00:00 - 30.05.2020 22:00:00 (CEST)
Data & Tempo tt [°C] td [°C] ff [km/h] ff [kn] dd ppp [hPa] vv [km] sd [min]
30.05.2020 22:00:00 14,0 11,0 4 2 S - 10 -
30.05.2020 21:00:00 17,0 12,0 5 3 E - 10 -
30.05.2020 20:00:00 18,0 10,9 11 6 E 1015,3 20 60
30.05.2020 19:00:00 19,0 10,0 11 6 E - 10 -
30.05.2020 18:00:00 20,0 9,0 11 6 E - 10 -
30.05.2020 17:00:00 20,0 9,6 13 7 ENE 1015,5 20 60
30.05.2020 16:00:00 20,0 10,0 13 7 ENE - 10 -
30.05.2020 15:00:00 20,0 10,0 11 6 NE - 10 -
30.05.2020 14:00:00 19,8 9,4 9 5 ENE 1016,6 20 60
30.05.2020 13:00:00 20,0 11,0 11 6 ENE - 10 -
30.05.2020 12:00:00 20,0 12,0 15 8 ENE - 10 -
30.05.2020 11:00:00 18,8 12,1 8 4 E 1017,5 20 60
30.05.2020 10:00:00 18,0 12,0 5 3 NO - 10 -
30.05.2020 09:00:00 15,0 10,0 11 6 ONO - 10 -
30.05.2020 08:00:00 13,6 9,2 11 6 ONO 1018,0 10 54
30.05.2020 07:00:00 11,0 10,0 5 3 O - 10 -
30.05.2020 06:00:00 12,0 10,0 9 5 O - 10 -
30.05.2020 05:00:00 12,8 10,7 9 5 O 1017,8 16 -
30.05.2020 04:00:00 13,0 11,0 8 4 O - 10 -
30.05.2020 03:00:00 13,0 11,0 4 2 - - 10 -
30.05.2020 02:00:00 13,0 11,4 8 4 OSO 1019,1 16 -
30.05.2020 01:00:00 13,0 12,0 8 4 OSO - 10 -
30.05.2020 00:00:00 13,0 11,0 8 4 SO - 10 -
29.05.2020 23:00:00 13,8 12,0 5 3 OSO 1019,4 16 -
29.05.2020 22:00:00 15,0 12,0 4 2 - - 10 -
29.05.2020 21:00:00 15,0 11,0 2 1 ONO - 10 -
29.05.2020 20:00:00 16,0 8,2 4 2 SO 1019,1 16 0
29.05.2020 19:00:00 16,0 8,0 4 2 ONO - 10 -
29.05.2020 18:00:00 16,0 8,0 5 3 NNO - 10 -
29.05.2020 17:00:00 16,2 7,9 8 4 N 1020,2 16 0
29.05.2020 16:00:00 17,0 9,0 4 2 - - 10 -
29.05.2020 15:00:00 16,0 10,0 2 1 - - 10 -
29.05.2020 14:00:00 15,4 9,5 4 2 N 1022,1 12 0
29.05.2020 13:00:00 14,0 11,0 5 3 SSO - 10 -
29.05.2020 12:00:00 14,0 11,0 4 2 - - 10 -
29.05.2020 11:00:00 13,0 10,7 13 7 SSE 1022,4 10 0
29.05.2020 10:00:00 13,0 11,0 18 10 ESE - 10 -
29.05.2020 09:00:00 13,0 11,0 13 7 SE - 10 -
29.05.2020 08:00:00 13,0 11,4 8 4 S 1022,3 20 0
29.05.2020 07:00:00 13,0 12,0 9 5 SO - 10 -
29.05.2020 06:00:00 13,0 12,0 9 5 SSO - 10 -
29.05.2020 05:00:00 14,0 12,4 13 7 E 1021,9 10 -
29.05.2020 04:00:00 14,0 14,0 22 12 NE - 10 -
29.05.2020 03:00:00 15,0 14,0 26 14 ENE - 10 -
29.05.2020 02:00:00 16,0 13,5 37 20 ENE 1021,3 10 -
29.05.2020 01:00:00 17,0 13,0 16 9 ENE - 10 -
29.05.2020 00:00:00 16,0 10,0 9 5 ESE - 10 -
28.05.2020 23:00:00 17,0 11,5 8 4 ESE 1020,0 20 -
28.05.2020 22:00:00 18,0 10,0 9 5 SE - 10 -
28.05.2020 21:00:00 19,0 7,0 11 6 ESE - 10 -
28.05.2020 20:00:00 21,7 6,4 13 7 ESE 1019,9 20 60
28.05.2020 19:00:00 22,0 6,0 16 9 ESE - 10 -
28.05.2020 18:00:00 22,0 7,0 16 9 E - 10 -
28.05.2020 17:00:00 23,0 7,9 16 9 E 1021,0 20 30
28.05.2020 16:00:00 23,0 8,0 21 11 E - 10 -
28.05.2020 15:00:00 23,0 8,0 24 13 E - 10 -
28.05.2020 14:00:00 23,0 7,9 22 12 E 1023,9 20 18
28.05.2020 13:00:00 23,0 8,0 16 9 ESE - 10 -
28.05.2020 12:00:00 23,0 9,0 18 10 E - 10 -
28.05.2020 11:00:00 22,4 9,5 9 5 E 1025,4 24 24
28.05.2020 10:00:00 20,0 10,0 5 3 N - 10 -
28.05.2020 09:00:00 18,0 10,0 5 3 E - 10 -
28.05.2020 08:00:00 15,0 8,9 8 4 SO 1025,9 20 60
28.05.2020 07:00:00 12,0 8,0 8 4 SO - 10 -
28.05.2020 06:00:00 11,0 6,0 5 3 SO - 10 -
28.05.2020 05:00:00 11,0 6,4 5 3 SO 1026,2 20 -
28.05.2020 04:00:00 11,0 7,0 13 7 SO - 10 -
28.05.2020 03:00:00 11,0 7,0 11 6 SO - 10 -
28.05.2020 02:00:00 11,0 7,1 9 5 SO 1027,3 10 -
28.05.2020 01:00:00 12,0 8,0 4 2 OSO - 10 -
28.05.2020 00:00:00 13,0 8,0 5 3 O - 10 -
27.05.2020 23:00:00 14,0 7,5 9 5 SO 1027,5 10 -
27.05.2020 22:00:00 16,0 7,0 2 1 SSO - 10 -
27.05.2020 21:00:00 19,0 5,0 2 1 SE - 10 -
27.05.2020 20:00:00 21,0 4,6 5 3 SE 1027,1 20 60
27.05.2020 19:00:00 22,0 4,0 5 3 SE - 10 -
27.05.2020 18:00:00 22,0 3,0 5 3 E - 10 -
27.05.2020 17:00:00 21,6 4,2 5 3 ENE 1028,5 20 60
27.05.2020 16:00:00 22,0 5,0 11 6 ENE - 10 -
27.05.2020 15:00:00 21,0 5,0 11 6 ENE - 10 -
27.05.2020 14:00:00 21,0 5,8 8 4 E 1029,5 20 60
27.05.2020 13:00:00 20,0 7,0 11 6 ENE - 10 -
27.05.2020 12:00:00 20,0 8,0 15 8 ENE - 10 -
27.05.2020 11:00:00 20,0 8,4 15 8 E 1030,5 20 60
27.05.2020 10:00:00 19,0 11,0 11 6 ENE - 10 -
27.05.2020 09:00:00 16,0 11,0 8 4 NNO - 10 -
27.05.2020 08:00:00 12,9 10,1 4 2 O 1030,6 20 60
27.05.2020 07:00:00 11,0 10,0 8 4 O - 10 -
27.05.2020 06:00:00 9,0 8,0 8 4 O - 10 -
27.05.2020 05:00:00 9,9 8,3 8 4 OSO 1030,4 20 -
27.05.2020 04:00:00 10,0 8,0 5 3 O - 10 -
27.05.2020 03:00:00 11,0 9,0 5 3 OSO - 10 -
27.05.2020 02:00:00 11,2 9,0 4 2 SO 1030,0 20 -
27.05.2020 01:00:00 15,0 9,0 8 4 ESE - 10 -
27.05.2020 00:00:00 15,0 9,0 9 5 SE - 10 -
26.05.2020 23:00:00 16,4 9,6 9 5 SE 1028,6 20 -
26.05.2020 22:00:00 17,0 10,0 8 4 SE - 10 -
26.05.2020 21:00:00 18,0 10,0 8 4 ESE - 10 -
26.05.2020 20:00:00 19,0 7,4 16 9 E 1027,4 20 24
26.05.2020 19:00:00 20,0 7,0 16 9 ESE - 10 -
26.05.2020 18:00:00 21,0 7,0 15 8 ESE - 10 -
26.05.2020 17:00:00 20,8 7,4 18 10 ESE 1027,2 20 60
26.05.2020 16:00:00 21,0 7,0 22 12 ESE - 10 -
26.05.2020 15:00:00 21,0 8,0 21 11 ESE - 10 -
26.05.2020 14:00:00 21,0 7,6 24 13 ESE 1028,3 20 60
26.05.2020 13:00:00 21,0 8,0 28 15 ESE - 10 -
26.05.2020 12:00:00 20,0 9,0 28 15 E - 10 -
26.05.2020 11:00:00 20,1 10,0 26 14 ESE 1028,4 20 60
26.05.2020 10:00:00 20,0 11,0 22 12 ESE - 10 -
26.05.2020 09:00:00 19,0 11,0 22 12 ESE - 10 -
26.05.2020 08:00:00 17,0 13,3 11 6 ESE 1026,5 20 42
26.05.2020 07:00:00 15,0 13,0 9 5 ESE - 10 -
26.05.2020 06:00:00 15,0 11,0 11 6 ESE - 10 -
26.05.2020 05:00:00 16,0 11,6 13 7 SE 1025,2 20 -
26.05.2020 04:00:00 17,0 12,0 26 14 ESE - 10 -
26.05.2020 03:00:00 17,0 15,0 22 12 E - 10 -
26.05.2020 02:00:00 14,6 12,8 13 7 NE 1024,7 20 -
26.05.2020 01:00:00 16,0 14,0 5 3 SE - 10 -
26.05.2020 00:00:00 16,0 14,0 5 3 SSE - 10 -
25.05.2020 23:00:00 17,0 14,8 9 5 SSE 1022,9 10 -
25.05.2020 22:00:00 19,0 16,0 13 7 ESE - 10 -
25.05.2020 21:00:00 20,0 15,0 9 5 E - 10 -
25.05.2020 20:00:00 23,0 12,6 8 4 E 1022,3 20 60
25.05.2020 19:00:00 24,0 12,0 13 7 ESE - 10 -
25.05.2020 18:00:00 24,0 13,0 15 8 ESE - 10 -
25.05.2020 17:00:00 23,6 13,2 15 8 E 1023,6 20 60
25.05.2020 16:00:00 24,0 15,0 16 9 E - 10 -
25.05.2020 15:00:00 24,0 14,0 15 8 E - 10 -
25.05.2020 14:00:00 23,6 14,0 15 8 E 1025,2 20 60
25.05.2020 13:00:00 23,0 14,0 15 8 E - 10 -
25.05.2020 12:00:00 23,0 12,0 15 8 ENE - 10 -
25.05.2020 11:00:00 21,6 13,5 5 3 NNE 1026,5 20 60
25.05.2020 10:00:00 20,0 14,0 5 3 N - 10 -
25.05.2020 09:00:00 17,0 12,0 9 5 O - 10 -
25.05.2020 08:00:00 13,8 11,5 9 5 O 1027,1 16 60
25.05.2020 07:00:00 12,0 12,0 8 4 O - 10 -
25.05.2020 06:00:00 10,0 10,0 8 4 O - 10 -
25.05.2020 05:00:00 10,8 10,5 4 2 OSO 1026,5 16 -
25.05.2020 04:00:00 11,0 11,0 5 3 ONO - 10 -
25.05.2020 03:00:00 12,0 12,0 4 2 SO - 10 -
25.05.2020 02:00:00 12,2 11,6 5 3 O 1026,5 16 -
25.05.2020 01:00:00 13,0 13,0 4 2 O - 10 -
25.05.2020 00:00:00 13,0 12,0 4 2 SSO - 10 -
24.05.2020 23:00:00 15,0 12,9 4 2 ESE 1026,2 16 -
24.05.2020 22:00:00 16,0 13,0 5 3 E - 10 -

tt = Temperatura
td = dewpoint
ff = velocità del vento
dd = direzione del vento
ppp = reduced air pressure
vv = visibility
sd = ore di luce

Stazioni seguenti

WeatherPro
AMSI
MeteoEarth